Location: Helsinki
(60.1699°N, 24.9384°E)
Time: 20:42:52
(UTC+02:00)

Transit 2A Rocket - Pass Details

Date: 24 September 2023
Orbit: 593 x 903 km, 66.7° (Epoch: 28 November)

Event Time Altitude Azimuth Distance (km) Brightness Sun altitude
Rises 23:03:57 0° 307° (NW) 3,061 9.3 -25.5°
Reaches altitude 10° 23:06:21 10° 308° (NW) 2,097 8.2 -25.7°
Enters shadow 23:10:35 71° 312° (NW) 674 4.8 -26.0°
Maximum altitude 23:11:04 89° 39° (NE) 638 - -26.0°
Drops below altitude 10° 23:15:28 10° 129° (SE) 1,959 - -26.3°
Sets 23:17:39 0° 130° (SE) 2,842 - -26.5°
